Location: Bazoches
(49.3075°N, 3.6195°E)
Time: 04:47:22
(UTC+00:00)

Daily predictions for brighter satellites

Satellite Brightness Start Highest point End
(mag) Time Altitude Azimuth Time Altitude Azimuth Time Altitude Azimuth
ATLAS 2AS CENTAUR R/B 4.5 00:01:42 10° NW 00:04:13 24° NW 00:04:13 24° NW
SL-16 R/B 3.7 01:09:58 39° N 01:09:58 39° N 01:13:55 10° N
Cosmos 2237 Rocket 4.3 01:10:40 21° NNW 01:10:40 21° NNW 01:13:16 10° NNE
ADEOS II 4.0 01:14:31 10° NNE 01:17:15 25° NE 01:17:15 25° NE
SL-16 R/B 3.8 01:48:08 28° NNW 01:48:08 28° NNW 01:51:27 10° NNE
CZ-2D R/B 3.4 01:47:11 10° NNE 01:50:21 36° N 01:50:21 36° N
Resurs 1-4 Rocket 3.4 01:58:48 10° N 02:01:48 34° N 02:01:48 34° N
Cosmos 2366 rocket 4.5 02:23:31 48° NNW 02:23:31 48° NNW 02:28:18 10° N
Cosmos 1943 3.9 02:23:45 45° NNW 02:23:45 45° NNW 02:28:07 10° NNE
Cosmos 1603 4.2 02:26:52 50° NNW 02:26:52 50° NNW 02:31:27 10° NNE
Cosmos 292 Rocket 4.4 02:37:21 53° NNE 02:37:21 53° NNE 02:41:07 10° NNE
IDEFIX/ARIANE 42P 3.2 02:31:51 10° N 02:35:50 47° NNW 02:35:50 47° NNW
SL-08 R/B 4.3 02:39:14 82° W 02:39:20 82° W 02:45:30 10° N
ATLAS 5 CENTAUR R/B 3.4 02:40:34 22° N 02:40:34 22° N 02:43:22 10° NNE
Cosmos 2239 Rocket 4.4 02:41:02 68° S 02:41:53 83° E 02:48:05 10° N
Cosmos 2221 4.1 02:44:53 28° N 02:44:53 28° N 02:47:01 10° N
CZ-2C R/B 3.9 02:38:49 10° NNE 02:43:24 33° E 02:45:49 22° SE
Cosmos 2251 Rocket 3.9 02:38:27 10° NNW 02:43:42 61° ENE 02:48:52 10° SE
Cosmos 1000 Rocket 4.3 02:37:41 10° NNW 02:43:57 79° W 02:44:16 77° SW
Cosmos 1821 Rocket 3.8 02:45:36 73° W 02:45:48 74° W 02:52:06 10° N
Cosmos 1500 Rocket 4.5 02:41:57 10° N 02:45:07 45° N 02:45:07 45° N
MSX 3.8 02:44:24 10° N 02:49:57 63° WNW 02:49:57 63° WNW
SL-16 R/B 4.1 02:55:04 19° NW 02:55:04 19° NW 02:57:08 10° NW
Cosmos 2123 Rocket 4.0 02:46:34 10° N 02:52:50 81° E 02:57:13 21° SSE
FENGYUN 3A 4.0 02:48:10 10° NNE 02:53:31 60° ESE 02:55:11 41° SSE
ADEOS II 2.9 02:54:10 10° N 02:58:10 37° NW 02:58:10 37° NW
Cosmos 1140 Rocket 3.9 02:55:54 10° NNW 03:01:03 61° ENE 03:06:12 10° SE
Sich 1 3.5 02:58:16 10° N 03:02:32 58° ENE 03:04:07 35° SE
Cosmos 1697 Rocket 3.9 02:57:28 10° NNW 03:02:51 43° NE 03:08:13 10° ESE
Cosmos 44 3.5 03:03:53 50° N 03:03:53 50° N 03:07:31 10° NNE
Cosmos 1782 3.9 03:11:06 35° NNW 03:11:06 35° NNW 03:13:37 10° N
IRS-1D 3.5 03:04:37 10° N 03:09:57 70° WNW 03:10:31 64° WSW
Cosmos 1934 Rocket 4.0 03:08:36 35° S 03:11:32 90° NNW 03:17:54 10° N
CBERS-1 4.0 03:06:39 10° NNE 03:11:48 78° ESE 03:13:28 44° S
Cosmos 1605 Rocket 4.3 03:08:56 13° S 03:14:20 62° E 03:20:21 10° NNE
ATLAS CENTAUR R/B 4.5 03:14:20 10° SE 03:16:38 13° ESE 03:18:57 10° E
CZ-2C R/B 3.2 03:18:44 10° SSE 03:23:49 58° ENE 03:29:02 10° N
Cosmos 1812 4.0 03:31:34 29° NNW 03:31:34 29° NNW 03:33:55 10° N
Cosmos 1340 4.3 03:32:42 22° NNW 03:32:42 22° NNW 03:34:31 10° N
CZ-2D R/B 3.9 03:28:41 10° NNW 03:31:39 16° NW 03:31:39 16° NW
PAYLOAD A 3.8 03:27:02 10° NNE 03:31:49 82° ESE 03:34:35 26° S
SL-16 R/B 4.5 03:30:39 10° NW 03:32:19 11° NNW 03:33:58 10° N
Cosmos 407 Rocket 3.4 03:28:17 10° NNW 03:33:37 84° WSW 03:38:58 10° SSE
Tiangong 0.5 03:38:03 12° SSE 03:38:03 12° SSE 03:38:26 10° SSE
BREEZE-M DEB (TANK) 1.7 03:41:11 73° S 03:41:11 73° S 03:45:35 10° ESE
Cosmos 1980 Rocket 3.4 03:36:01 10° NNW 03:41:22 43° NE 03:46:41 10° SE
EO 1 Del DPAF 4.1 03:38:43 10° N 03:40:49 29° NNW 03:40:49 29° NNW
Meteor 1-14 Rocket 4.3 03:35:57 10° NNW 03:41:52 64° W 03:47:36 10° S
Lacrosse 4 Rocket 4.4 03:39:50 10° N 03:41:55 13° NNE 03:44:00 10° ENE
Cosmos 1656 3.7 03:36:26 10° NW 03:42:02 57° WSW 03:47:35 10° S
ALOS 2.2 03:37:52 10° N 03:42:29 62° WNW 03:44:08 38° SW
Resurs 1-4 Rocket 4.1 03:40:45 10° NNW 03:42:50 12° NW 03:42:52 12° NW
X-37B 2.6 03:43:15 17° SSE 03:43:15 17° SSE 03:45:00 10° ESE
Helios 1B rocket 2.3 03:49:18 10° N 03:53:22 76° WNW 03:55:38 25° SSW
USA 307 4.4 03:51:03 17° S 03:53:25 30° SE 03:57:04 10° ENE
Meteor 1-5 Rocket 4.5 03:49:02 10° NNW 03:54:04 40° W 03:57:32 18° SSW
Cosmos 1805 Rocket 4.1 03:50:01 10° NNW 03:54:04 36° W 03:54:18 36° W
ARIANE 5 R/B 2.5 03:49:58 10° NNE 03:55:04 82° ESE 04:00:05 10° SSW
Meteor 1-11 Rocket 3.9 03:52:45 10° N 03:58:46 84° ENE 04:04:44 10° SSE
SL-08 R/B 3.2 03:57:37 10° SSE 04:02:16 89° WSW 04:07:01 10° NNW
Cosmos 1633 Rocket 2.9 03:59:14 10° NNW 04:03:37 83° W 04:07:56 10° S
Cosmos 1484 Rocket 2.8 04:03:49 10° NNE 04:07:49 84° ESE 04:11:48 10° SSW
USA 306 3.7 04:05:17 19° SSW 04:07:53 43° SE 04:11:48 10° ENE
Cosmos 676 Rocket 4.1 04:04:51 10° NNW 04:10:05 82° ENE 04:15:20 10° SSE
Cosmos 1666 Rocket 3.6 04:08:58 10° NNW 04:13:20 55° W 04:17:42 10° S
Cosmos 2098 Rocket 1.9 04:10:30 10° NNW 04:13:22 58° W 04:16:14 10° S
ERS-1 4.5 04:09:01 10° NNE 04:14:13 75° WNW 04:19:24 10° SSW
Cosmos 2360 4.2 04:09:14 10° NNW 04:14:54 65° WSW 04:20:31 10° SSE
Cosmos 1624 Rocket 4.1 04:12:10 10° SSW 04:17:28 82° ESE 04:22:49 10° NNE
Meteor 1-4 Rocket 2.4 04:14:22 10° NNW 04:17:59 87° WSW 04:21:38 10° S
Cosmos 1153 Rocket 4.4 04:12:15 10° SSW 04:18:22 75° W 04:24:37 10° N
CZ-2C R/B 3.8 04:13:04 10° NNE 04:18:52 65° E 04:24:28 10° S
Cosmos 2100 Rocket 4.2 04:15:22 10° S 04:21:29 77° E 04:27:39 10° NNE
USA 234 3.7 04:15:06 10° ENE 04:21:34 59° SE 04:28:00 10° SW
CZ-2C R/B 3.0 04:16:58 10° N 04:21:38 38° WNW 04:25:10 16° SW
Cosmos 1328 Rocket 3.5 04:17:43 10° SSW 04:22:04 77° WNW 04:26:30 10° N
Meteor 2-13 Rocket 4.5 04:17:06 10° N 04:23:17 88° E 04:29:26 10° S
BREEZE-M DEB (TANK) 3.3 04:20:00 17° W 04:23:37 45° SSW 04:26:08 10° SE
Cosmos 1833 Rocket 2.7 04:20:03 10° SSW 04:25:42 77° WNW 04:31:24 10° NNE
ATLAS 5 CENTAUR R/B 3.9 04:23:18 10° NW 04:25:50 15° N 04:28:36 10° NE
CZ-2C R/B 1.4 04:25:35 10° N 04:27:40 81° W 04:30:58 10° S
Envisat 3.0 04:22:39 10° NNE 04:27:47 88° WNW 04:32:51 10° SSW
USA 308 3.5 04:24:31 13° SW 04:28:01 49° SE 04:32:02 10° ENE
Cosmos 1515 3.7 04:24:34 10° SSW 04:28:13 54° WNW 04:31:54 10° N
ERBS 1.8 04:28:10 23° WSW 04:29:48 81° NNW 04:32:43 10° NE
Cosmos 1371 Rocket 4.0 04:25:04 10° SSW 04:30:21 76° WNW 04:35:38 10° NNE
IRS-1C 4.4 04:25:31 10° N 04:30:37 47° WNW 04:35:42 10° SW
Aureole 3 4.1 04:28:39 17° SW 04:31:00 28° WNW 04:34:04 10° NNW
Cosmos 1536 2.9 04:27:01 10° NNW 04:31:01 56° W 04:34:57 10° S
PSLV R/B 4.1 04:27:58 10° NNE 04:32:18 61° E 04:36:34 10° S
COSMOS 2406 3.5 04:29:08 10° SSW 04:34:46 72° ESE 04:40:26 10° NNE
Cosmos 2082 Rocket 2.9 04:30:34 10° S 04:36:02 57° ESE 04:41:32 10° NE
YAOGAN 6 2.8 04:34:52 10° N 04:38:25 51° WNW 04:41:56 10° SSW
Cosmos 44 Rocket 4.5 04:35:40 10° S 04:40:05 41° ESE 04:44:31 10° NE
Cosmos 1515 Rocket 3.6 04:35:41 10° S 04:40:06 86° E 04:44:35 10° N
Cosmos 1151 Rocket 3.8 04:36:50 10° SW 04:40:38 31° WNW 04:44:29 10° N
BREEZE M DEB (TANK) 4.4 04:22:03 14° W 04:41:14 88° N 04:46:10 10° E
Cosmos 1470 Rocket 3.6 04:40:05 10° NNW 04:44:18 52° W 04:48:31 10° S
Cosmos 1697 Rocket 3.1 04:41:36 10° NW 04:46:47 38° WSW 04:51:57 10° S
Cosmos 2360 Rocket 4.4 04:45:13 10° NNW 04:49:47 24° NE 04:54:19 10° E
Cosmos 1356 4.5 04:49:24 10° SW 04:52:06 23° WNW 04:54:47 10° NNW
Cosmos 1346 Rocket 3.4 04:48:52 10° SW 04:52:34 36° WNW 04:56:16 10° N
BREEZE M DEB (TANK) 4.0 04:41:47 10° SW 04:54:17 58° SSE 04:57:59 10° E
Cosmos 1850 Rocket 4.3 04:49:08 10° NNW 04:54:30 79° ENE 04:59:50 10° SSE
ATLAS CENTAUR R/B 1.9 04:49:47 10° SSW 04:54:37 78° SE 04:59:30 10° NE
Cosmos 1743 3.6 04:52:52 10° NNW 04:56:06 27° W 04:59:22 10° SSW
SJ-6F 4.5 04:52:12 10° NNE 04:56:24 88° WNW 05:00:33 10° SSW
USA 305 2.8 04:54:04 10° WSW 04:58:12 87° SSE 05:02:22 10° ENE
CZ-2C R/B 2.6 04:55:09 10° N 04:58:52 72° WNW 05:02:38 10° SSW
BREEZE-M DEB (TANK) 1.7 04:56:20 10° W 04:59:10 64° SSW 05:01:31 10° ESE
Tsikada Rocket 4.3 04:52:58 10° N 04:59:21 78° E 05:05:37 10° SSE
Cosmos 2056 Rocket 3.8 04:56:02 10° SW 05:00:59 47° WNW 05:05:56 10° NNE
Cosmos 1441 Rocket 3.8 05:00:13 10° SW 05:03:37 34° WNW 05:07:05 10° N
Meteor 1-27 Rocket 4.0 04:58:20 10° SSW 05:03:56 52° WNW 05:09:41 10° N
CZ-2C R/B 3.7 05:00:29 10° SW 05:04:31 23° W 05:08:39 10° NW
Cosmos 1802 Rocket 4.1 05:00:06 10° SSW 05:06:30 72° W 05:12:51 10° N
Cosmos 1939 Rocket 4.1 05:05:14 10° NNE 05:09:12 48° E 05:13:06 10° S
Spot 4 Rocket 4.3 05:06:26 10° N 05:11:21 46° WNW 05:16:14 10° SW
Cosmos 1459 Rocket 4.2 05:05:10 10° SSW 05:11:21 54° WNW 05:17:38 10° N
